Flag for U.S.A. Weather past 2 weeks in Brattleboro, Vermont, U.S.A.

Now
59 °F

Clear.


Feels Like: 59 °F
Forecast: 55 / 82 °F
Wind: No wind

Location: Keene / Dillant

Current Time: Jul 25, 2014 at 11:59:14 PM

Latest Report: Jul 25, 2014 at 11:35 PM


Visibility: 6 mi

Pressure: 30.00 "Hg

Humidity: 72%

Dew point: 50 °F

Location of BrattleboroLocation

Historic Weather in Brattleboro — Graph

°F

Brattleboro temperature yesterday

Maximum temperature yesterday: 77 °F (at 2:35 PM)
Minimum temperature yesterday: 57 °F (at 10:55 PM)
Average temperature yesterday: 69 °F

Past Weeks' High & Low Weather Summary

 TemperatureHumidityPressure
High90 °F (Jul 23, 2:35 PM)82% (Jul 17, 5:55 AM)30.30 "Hg (Jul 17, 5:55 AM)
Low52 °F (Jul 25, 4:55 AM)34% (Jul 11, 2:15 PM)29.73 "Hg (Jul 23, 5:15 PM)
Average69 °F62%30.04 "Hg
* Reported Jul 10 10:15 PM — Jul 25 10:35 PM, Brattleboro, Weather by CustomWeather, © 2014

Note: Actual official high and low records may vary slightly from our data, if they occured in-between our weather recording intervals... More about our weather records

Advertising

Brattleboro weather history for previous 24 hours

 ConditionsComfort  
Time TempWeatherWind HumidityBarometerVisibility
10:35 PM
Jul 25
61 °FClear.No wind72%30.00 "Hg5 mi
10:15 PM63 °FClear.No wind68%30.00 "Hg7 mi
9:55 PM63 °FClear.No wind68%30.00 "Hg10 mi
9:35 PM63 °FClear.No wind73%29.99 "Hg10 mi
9:15 PM64 °FSunny.No wind68%29.99 "Hg10 mi
8:55 PM64 °FSunny.No wind68%29.98 "Hg9 mi
8:35 PM64 °FSunny.No wind68%29.97 "Hg9 mi
7:55 PM70 °FSunny.No wind60%29.96 "Hg10 mi
7:35 PM72 °FSunny.No wind61%29.96 "Hg10 mi
7:15 PM75 °FSunny.No wind54%29.96 "Hg10 mi
6:55 PM75 °FSunny.No wind47%29.95 "Hg10 mi
6:35 PM75 °FSunny.No wind47%29.95 "Hg10 mi
6:15 PM77 °FSunny.5 mph42%29.95 "Hg10 mi
5:55 PM77 °FSunny.3 mph42%29.95 "Hg10 mi
5:35 PM79 °FSunny.6 mph39%29.95 "Hg10 mi
5:15 PM79 °FSunny.6 mph39%29.95 "Hg10 mi
4:55 PM79 °FPassing clouds.6 mph39%29.95 "Hg10 mi
4:35 PM79 °FScattered clouds.7 mph39%29.95 "Hg10 mi
4:15 PM79 °FPassing clouds.7 mph39%29.96 "Hg10 mi
3:55 PM79 °FPassing clouds.6 mph37%29.96 "Hg9 mi
3:35 PM79 °FPassing clouds.8 mph39%29.96 "Hg9 mi
3:15 PM79 °FPassing clouds.No wind37%29.96 "Hg10 mi
2:55 PM79 °FPassing clouds.7 mph39%29.96 "Hg10 mi
2:35 PM79 °FSunny.8 mph37%29.97 "Hg10 mi
2:15 PM77 °FSunny.9 mph42%29.97 "Hg10 mi
1:55 PM77 °FSunny.5 mph42%29.97 "Hg10 mi
1:35 PM75 °FPassing clouds.3 mph44%29.97 "Hg10 mi
1:15 PM75 °FScattered clouds.8 mph44%29.98 "Hg10 mi
12:55 PM75 °FSunny.5 mph44%29.99 "Hg8 mi
12:35 PM73 °FSunny.6 mph47%29.99 "Hg10 mi
12:15 PM73 °FSunny.6 mph47%29.99 "Hg10 mi
11:55 AM73 °FSunny.No wind47%30.00 "Hg10 mi
11:35 AM72 °FSunny.No wind50%30.01 "Hg10 mi
10:55 AM70 °FSunny.No wind53%30.01 "Hg10 mi
10:35 AM70 °FSunny.No wind53%30.02 "Hg10 mi
10:15 AM66 °FSunny.3 mph52%30.03 "Hg10 mi
9:55 AM64 °FSunny.No wind56%30.03 "Hg10 mi
9:35 AM63 °FSunny.No wind59%30.03 "Hg10 mi
9:15 AM59 °FSunny.3 mph68%30.03 "Hg10 mi
8:35 AM55 °FScattered clouds.No wind72%30.02 "Hg10 mi
8:15 AM54 °FLow clouds.No wind72%30.02 "Hg10 mi
7:55 AM54 °FLow clouds.No wind72%30.01 "Hg10 mi
7:35 AM54 °FLow clouds.No wind72%30.01 "Hg9 mi
7:15 AM52 °FLow clouds.No wind77%30.00 "Hg2 mi
6:55 AM52 °FLow clouds.No wind77%30.01 "Hg10 mi
6:35 AM52 °FLow clouds.No wind77%30.01 "Hg0 mi
6:15 AM52 °FLow clouds.3 mph77%30.00 "Hg0 mi
5:55 AM52 °FLow clouds.No wind77%29.99 "Hg0 mi
5:35 AM52 °FLow clouds.No wind77%29.99 "Hg0 mi
5:15 AM52 °FLow clouds.No wind77%29.99 "Hg0 mi
4:55 AM52 °FLow clouds.No wind77%29.98 "Hg0 mi
4:35 AM54 °FLow clouds.No wind72%29.98 "Hg0 mi
4:15 AM54 °FLow clouds.No wind72%29.98 "Hg0 mi
3:55 AM54 °FLow clouds.No wind72%29.98 "Hg0 mi
3:35 AM54 °FLow clouds.No wind72%29.98 "Hg0 mi
3:15 AM54 °FLow clouds.No wind72%29.98 "Hg0 mi
2:55 AM54 °FLow clouds.No wind72%29.97 "Hg0 mi
2:35 AM54 °FLow clouds.No wind72%29.97 "Hg0 mi
2:15 AM54 °FLow clouds.No wind72%29.97 "Hg0 mi
1:55 AM54 °FClear.No wind72%29.96 "Hg10 mi
1:35 AM55 °FClear.No wind72%29.97 "Hg10 mi
1:15 AM55 °FClear.No wind72%29.96 "Hg10 mi
12:55 AM55 °FClear.No wind72%29.96 "Hg10 mi
12:35 AM55 °FClear.No wind72%29.96 "Hg10 mi
12:15 AM55 °FClear.No wind72%29.96 "Hg10 mi
11:55 PM
Jul 24
57 °FClear.No wind72%29.95 "Hg10 mi
11:35 PM57 °FClear.No wind72%29.95 "Hg10 mi
11:15 PM57 °FClear.No wind72%29.94 "Hg10 mi
Weather by CustomWeather, © 2014

See weather overviewHow to use our weather pages